LogID,LogEntryDate,LogEntryTime,LogEntrySeconds,01_LogMark,AFR,STFT,CurrentLTFT,IdleLTFT,CruiseLTFT,Load,O2Sensor2,IPW,AFRMAP,LoadTiming,TimingAdv,KnockSum,RPM,Baro,MAP,Boost,WGDC_Active,MAF,IDC,InVVTtarget,APP,ExVVTtarget,InVVTactual,ExVVTactual,TPS,IAT,WGDCCorr,Speed,Battery,ECT,MAT,MAPCalcs,IMAPCalcs,MAFCalcs,ChosenCalc,Custom
1,2024-06-27,04:58:04.82620,0.34774,0,0,0,-12.5,-12.5,-2.1484375,9.375,,0,,9.375,-10,0,2960.9375,14.86636835,3.0875808,-11.77878755,0,1.607856,0,10,,0,10.15625,0.46875,14.1176470588235,75.2,0,43.505,,183.2,96.8,9.375,0,9.375,9.375,
2,2024-06-27,04:58:04.88871,0.41656,0,18.5,0,-12.5,-12.5,-2.1484375,9.375,,0,,9.375,-10,0,2937.5,14.86636835,3.0875808,-11.77878755,0,1.607856,0,10,,0,10.15625,0.46875,14.1176470588235,75.2,0,43.505,,183.2,96.8,9.375,0,9.375,9.375,
3,2024-06-27,04:58:04.95120,0.4777,0,18.5,0,-12.5,-12.5,-2.1484375,9.375,,0,,9.375,-10,0,2937.5,14.93888722,3.0875808,-11.85130642,0,1.66668,0,10,,0,10.15625,0.46875,14.1176470588235,75.2,0,43.505,,183.2,96.8,9.375,0,10.9375,9.375,
4,2024-06-27,04:58:04.99807,0.5244,0,18.5,0,-12.5,-12.5,-2.1484375,9.375,,0,,9.375,-10,0,2929.6875,14.93888722,3.0875808,-11.85130642,0,1.66668,0,10,,0,10,0.46875,14.1176470588235,75.2,0,43.505,,183.2,96.8,9.375,0,7.8125,9.375,
5,2024-06-27,04:58:05.13870,0.65864,0,18.5,0,-12.5,-12.5,-2.1484375,9.375,,0,,9.375,-10,0,2921.875,14.86636835,3.0875808,-11.77878755,0,1.647072,0,10,,0,10,0.46875,14.1176470588235,75.2,0,43.505,,183.2,96.8,9.375,0,9.375,9.375,
6,2024-06-27,04:58:05.18563,0.71272,0,18.5,0,-12.5,-12.5,-2.1484375,9.375,,0,,9.375,-10,0,2914.0625,14.86636835,3.0875808,-11.77878755,0,1.647072,0,10,,0,10,0.46875,14.1176470588235,75.2,0,43.505,,183.2,96.8,9.375,0,9.375,9.375,
7,2024-06-27,04:58:05.27933,0.80677,0,18.5,0,-12.5,-12.5,-2.1484375,9.375,,0,,9.375,-10,0,2906.25,14.86636835,3.0875808,-11.77878755,0,1.56864,0,10,,0,10,0.46875,14.1176470588235,75.2,0,43.505,,183.2,96.8,9.375,0,10.9375,9.375,
8,2024-06-27,04:58:05.34183,0.85799,0,18.5,0,-12.5,-12.5,-2.1484375,9.375,,0,,9.375,-10,0,2898.4375,14.86636835,3.0875808,-11.77878755,0,1.56864,0,10,,0,10.15625,0.46875,14.1176470588235,75.2,0,43.505,,183.2,96.8,9.375,0,9.375,9.375,
9,2024-06-27,04:58:05.40436,0.93227,0,18.5,0,-12.5,-12.5,-2.1484375,9.375,,0,,9.375,-10,0,2890.625,14.86636835,2.9910939,-11.87527445,0,1.56864,0,10,,0,10.15625,0.46875,14.1176470588235,75.2,0,42.262,,183.2,96.8,9.375,0,10.9375,9.375,
10,2024-06-27,04:58:05.45120,0.97578,0,18.5,0,-12.5,-12.5,-2.1484375,9.375,,0,,9.375,-10,0,2882.8125,14.86636835,2.9910939,-11.87527445,0,1.56864,0,10,,0,10.15625,0.46875,14.1176470588235,75.2,0,42.262,,183.2,96.8,9.375,0,7.8125,9.375,
11,2024-06-27,04:58:05.49807,1.01573,0,18.5,0,-12.5,-12.5,-2.1484375,9.375,,0,,9.375,-10,0,2882.8125,14.86636835,2.9910939,-11.87527445,0,1.529424,0,10,,0,10.15625,0.46875,14.1176470588235,75.2,0,42.262,,183.2,96.8,9.375,0,10.9375,9.375,
12,2024-06-27,04:58:05.54495,1.06541,0,18.5,0,-12.5,-12.5,-2.1484375,9.375,,0,,9.375,-10,0,2867.1875,14.86636835,2.9910939,-11.87527445,0,1.529424,0,10,,0,10,0.3125,14.1176470588235,75.2,0,42.262,,183.2,96.8,9.375,0,9.375,9.375,
13,2024-06-27,04:58:05.57620,1.10434,0,18.5,0,-12.5,-12.5,-2.1484375,9.375,,0,,9.375,-10,0,2867.1875,14.86636835,2.9910939,-11.87527445,0,1.607856,0,10,,0,10,0.3125,14.1176470588235,75.2,0,42.262,,183.2,96.8,9.375,0,10.9375,9.375,
14,2024-06-27,04:58:05.60745,1.13441,0,18.5,0,-12.5,-12.5,-2.1484375,9.375,,0,,9.375,-10,0,2867.1875,14.86636835,2.9910939,-11.87527445,0,1.607856,0,10,,0,10,0.46875,14.1176470588235,75.2,0,42.262,,183.2,96.8,9.375,0,9.375,9.375,
15,2024-06-27,04:58:05.68557,1.20181,0,18.5,0,-12.5,-12.5,-2.1484375,9.375,,0,,9.375,-10,0,2859.375,14.93888722,2.9910939,-11.94779332,0,1.607856,0,10,,0,10,0.46875,14.1176470588235,75.2,0,42.262,,183.2,96.8,9.375,0,10.9375,9.375,
16,2024-06-27,04:58:05.71683,1.24259,0,18.5,0,-12.5,-12.5,-2.1484375,9.375,,0,,9.375,-10,0,2851.5625,14.93888722,2.9910939,-11.94779332,0,1.607856,0,10,,0,10,0.46875,14.1176470588235,75.2,0,42.262,,183.2,96.8,9.375,0,10.9375,9.375,
17,2024-06-27,04:58:05.76370,1.28437,0,18.5,0,-12.5,-12.5,-2.1484375,9.375,,0,,9.375,-10,0,2851.5625,14.93888722,2.9910939,-11.94779332,0,1.588248,0,10,,0,10,0.46875,14.1176470588235,75.2,0,42.262,,183.2,96.8,9.375,0,9.375,9.375,
18,2024-06-27,04:58:05.77933,1.30403,0,18.5,0,-12.5,-12.5,-2.1484375,9.375,,0,,9.375,-10,0,2851.5625,14.93888722,2.9910939,-11.94779332,0,1.588248,0,10,,0,10,0.46875,14.1176470588235,75.2,0,42.262,,183.2,96.8,9.375,0,9.375,9.375,
19,2024-06-27,04:58:05.85745,1.376,0,18.5,0,-12.5,-12.5,-2.1484375,9.375,,0,,9.375,-10,0,2843.75,14.86636835,2.9910939,-11.87527445,0,1.627464,0,10,,0,10,0.46875,14.1176470588235,75.2,0,42.262,,183.2,96.8,9.375,0,10.9375,9.375,
20,2024-06-27,04:58:05.90432,1.42335,0,18.5,0,-12.5,-12.5,-2.1484375,9.375,,0,,9.375,-10,0,2835.9375,14.86636835,2.9910939,-11.87527445,0,1.627464,0,10,,0,10.15625,0.46875,13.7254901960784,75.2,0,42.262,,183.2,96.8,9.375,0,12.5,9.375,
21,2024-06-27,04:58:05.93557,1.46327,0,18.5,0,-12.5,-12.5,-2.1484375,9.375,,0,,9.375,-10,0,2835.9375,14.86636835,2.9910939,-11.87527445,0,1.607856,0,10,,0,10.15625,0.46875,13.7254901960784,75.2,0,42.262,,183.2,96.8,9.375,0,9.375,9.375,
22,2024-06-27,04:58:05.98245,1.5108,0,18.5,0,-12.5,-12.5,-2.1484375,9.375,,0,,9.375,-10,0,2828.125,14.86636835,2.9910939,-11.87527445,0,1.607856,0,10,,0,10,0.3125,13.7254901960784,75.2,0,42.262,,183.2,96.8,9.375,0,9.375,9.375,
23,2024-06-27,04:58:06.04495,1.56562,0,18.5,0,-12.5,-12.5,-2.1484375,9.375,,0,,9.375,-10,0,2828.125,14.86636835,2.894607,-11.97176135,0,1.56864,0,10,,0,10,0.3125,13.7254901960784,75.2,0,42.262,,183.2,96.8,9.375,0,9.375,9.375,
24,2024-06-27,04:58:06.07622,1.60361,0,18.5,0,-12.5,-12.5,-2.1484375,9.375,,0,,9.375,-10,0,2820.3125,14.86636835,2.894607,-11.97176135,0,1.56864,0,10,,0,10,0.3125,13.7254901960784,75.2,0,41.019,,183.2,96.8,9.375,0,7.8125,9.375,
25,2024-06-27,04:58:06.13870,1.66478,0,18.5,0,-12.5,-12.5,-2.1484375,9.375,,0,,9.375,-10,0,2820.3125,14.93888722,2.9910939,-11.94779332,0,1.549032,0,10,,0,10,0.3125,13.7254901960784,75.2,0,41.019,,183.2,96.8,9.375,0,7.8125,9.375,
26,2024-06-27,04:58:06.18562,1.70796,0,18.5,0,-12.5,-12.5,-2.1484375,9.375,,0,,9.375,-10,0,2812.5,14.93888722,2.9910939,-11.94779332,0,1.549032,0,10,,0,10.15625,0.46875,13.7254901960784,75.2,0,41.019,,183.2,96.8,9.375,0,7.8125,9.375,
27,2024-06-27,04:58:06.24816,1.76813,0,18.5,0,-12.5,-12.5,-2.1484375,9.375,,0,,9.375,-10,0,2812.5,14.86636835,2.9910939,-11.87527445,0,1.607856,0,10,,0,10.15625,0.46875,13.7254901960784,75.2,0,41.019,,183.2,96.8,9.375,0,9.375,9.375,
28,2024-06-27,04:58:06.29497,1.8176,0,18.5,0,-12.5,-12.5,-2.1484375,9.375,,0,,9.375,-10,0,2804.6875,14.86636835,2.9910939,-11.87527445,0,1.607856,0,10,,0,10.15625,0.3125,13.7254901960784,75.2,0,41.019,,183.2,96.8,9.375,0,9.375,9.375,
29,2024-06-27,04:58:06.35745,1.87272,0,18.5,0,-12.5,-12.5,-2.1484375,9.375,,0,,9.375,-10,0,2796.875,14.86636835,2.9910939,-11.87527445,0,1.627464,0,10,,0,10.15625,0.3125,13.7254901960784,75.2,0,41.019,,183.2,96.8,9.375,0,7.8125,9.375,
30,2024-06-27,04:58:06.40432,1.92046,0,18.5,0,-12.5,-12.5,-2.1484375,9.375,,0,,9.375,-10,0,2789.0625,14.86636835,2.9910939,-11.87527445,0,1.627464,0,10,,0,10,0.3125,13.7254901960784,75.2,0,41.019,,183.2,96.8,9.375,0,10.9375,9.375,
31,2024-06-27,04:58:06.46686,1.99163,0,18.5,0,-12.5,-12.5,-2.1484375,9.375,,0,,9.375,-10,0,2781.25,14.86636835,2.894607,-11.97176135,0,1.607856,0,10,,0,10,0.3125,13.7254901960784,75.2,0,41.019,,183.2,96.8,9.375,0,7.8125,9.375,
32,2024-06-27,04:58:06.51373,2.02933,0,18.5,0,-12.5,-12.5,-2.1484375,9.375,,0,,9.375,-10,0,2773.4375,14.86636835,2.894607,-11.97176135,0,1.607856,0,10,,0,10,0.3125,13.7254901960784,75.2,0,41.019,,183.2,96.8,9.375,0,7.8125,9.375,
33,2024-06-27,04:58:06.57622,2.09627,0,18.5,0,-12.5,-12.5,-2.1484375,9.375,,0,,9.375,-10,0,2781.25,14.86636835,2.9910939,-11.87527445,0,1.549032,0,10,,0,10,0.3125,13.7254901960784,75.2,0,41.019,,183.2,96.8,9.375,0,10.9375,9.375,
34,2024-06-27,04:58:06.60745,2.1278,0,18.5,0,-12.5,-12.5,-2.1484375,9.375,,0,,9.375,-10,0,2781.25,14.86636835,2.9910939,-11.87527445,0,1.549032,0,10,,0,10.15625,0.46875,13.7254901960784,75.2,0,41.019,,183.2,96.8,9.375,0,9.375,9.375,
35,2024-06-27,04:58:06.66995,2.19194,0,18.5,0,-12.5,-12.5,-2.1484375,9.375,,0,,9.375,-10,0,2773.4375,14.86636835,2.9910939,-11.87527445,0,1.588248,0,10,,0,10.15625,0.46875,13.7254901960784,75.2,0,41.019,,183.2,96.8,9.375,0,10.9375,9.375,
36,2024-06-27,04:58:06.70125,2.22777,0,18.5,0,-12.5,-12.5,-2.1484375,9.375,,0,,9.375,-10,0,2765.625,14.86636835,2.9910939,-11.87527445,0,1.588248,0,10,,0,10.15625,0.46875,13.7254901960784,75.2,0,41.019,,183.2,96.8,9.375,0,9.375,9.375,
37,2024-06-27,04:58:06.77933,2.29532,0,18.5,0,-12.5,-12.5,-2.1484375,9.375,,0,,9.375,-10,0,2757.8125,14.86636835,2.9910939,-11.87527445,0,1.56864,0,10,,0,10.15625,0.46875,13.7254901960784,75.2,0,41.019,,183.2,96.8,9.375,0,7.8125,9.375,
38,2024-06-27,04:58:06.84183,2.36853,0,18.5,0,-12.5,-12.5,-2.1484375,9.375,,0,,9.375,-10,0,2750,14.86636835,2.9910939,-11.87527445,0,1.56864,0,10,,0,10.15625,0.3125,13.7254901960784,75.2,0,41.019,,183.2,96.8,9.375,0,7.8125,9.375,
39,2024-06-27,04:58:06.93558,2.46436,0,18.5,0,-12.5,-12.5,-2.1484375,9.375,,0,,9.375,-10,0,2734.375,14.86636835,2.9910939,-11.87527445,0,1.627464,0,10,,0,10.15625,0.3125,13.7254901960784,75.2,0,39.776,,183.2,96.8,9.375,0,9.375,9.375,
40,2024-06-27,04:58:06.96683,2.48595,0,18.5,0,-12.5,-12.5,-2.1484375,9.375,,0,,9.375,-10,0,2734.375,14.86636835,2.9910939,-11.87527445,0,1.627464,0,10,,0,10.15625,0.3125,13.7254901960784,75.2,0,39.776,,183.2,96.8,9.375,0,9.375,9.375,
41,2024-06-27,04:58:07.01370,2.54198,0,18.5,0,-12.5,-12.5,-2.1484375,9.375,,0,,9.375,-10,0,2726.5625,14.86636835,2.9910939,-11.87527445,0,1.607856,0,10,,0,10.15625,0.3125,13.7254901960784,75.2,0,39.776,,183.2,96.8,9.375,0,7.8125,9.375,
42,2024-06-27,04:58:07.06061,2.57975,0,18.5,0,-12.5,-12.5,-2.1484375,9.375,,0,,9.375,-10,0,2664.0625,14.86636835,2.9910939,-11.87527445,0,1.607856,0,10,,0,10.15625,0.3125,13.7254901960784,75.2,0,39.776,,183.2,96.8,9.375,0,6.25,9.375,
43,2024-06-27,04:58:07.09183,2.61939,0,18.5,0,-12.5,-12.5,-2.1484375,9.375,,0,,9.375,-10,0,2625,14.86636835,2.9910939,-11.87527445,0,1.607856,0,10,,0,10.15625,0.3125,13.7254901960784,75.2,0,39.776,,183.2,96.8,9.375,0,10.9375,9.375,
44,2024-06-27,04:58:07.13870,2.66214,0,18.5,0,-12.5,-12.5,-2.1484375,9.375,,0,,9.375,-10,0,2562.5,14.86636835,2.9910939,-11.87527445,0,1.607856,0,10,,0,10.15625,0.3125,13.3333333333333,75.2,0,39.776,,183.2,96.8,9.375,0,9.375,9.375,
45,2024-06-27,04:58:07.18561,2.71378,0,18.5,0,-12.5,-12.5,-2.1484375,9.375,,0,,9.375,-10,0,2507.8125,14.86636835,2.9910939,-11.87527445,0,1.588248,0,10,,0,10.15625,0.3125,13.3333333333333,75.2,0,39.776,,183.2,96.8,9.375,0,9.375,9.375,
46,2024-06-27,04:58:07.23245,2.7487,0,18.5,0,-12.5,-12.5,-2.1484375,9.375,,0,,9.375,-10,0,2445.3125,14.86636835,2.9910939,-11.87527445,0,1.588248,0,10,,0,10.15625,0.3125,13.3333333333333,75.2,0,39.776,,183.2,96.8,9.375,0,9.375,9.375,
47,2024-06-27,04:58:07.29495,2.82067,0,18.5,0,-12.5,-12.5,-2.1484375,9.375,,0,,9.375,-10,0,2398.4375,14.86636835,3.2805546,-11.58581375,0,1.901976,0,10,,0,10.15625,0.3125,35.6862745098039,75.2,0,39.776,,183.2,96.8,21.875,0,159.375,21.875,
48,2024-06-27,04:58:07.40432,2.92556,0,18.5,0,-12.5,-12.5,-2.1484375,21.875,,2.6,,48.4375,40,0,2312.5,14.86636835,3.2805546,-11.58581375,0,1.901976,5.01041666666667,24.375,,-20,10.3125,0.15625,35.6862745098039,75.2,0,39.776,,183.2,96.8,81.25,45.3125,48.4375,59.375,
49,2024-06-27,04:58:07.54503,3.06133,0,18.5,0,-2.1484375,-12.5,-2.1484375,57.8125,,2.6,,51.5625,0,0,2843.75,14.86636835,6.3681354,-8.49823295,0,1.37256,6.16145833333333,24.375,,-20,10.3125,0.15625,35.6862745098039,75.2,0,39.776,,183.2,96.8,25,21.875,10.9375,21.875,
50,2024-06-27,04:58:07.63870,3.16457,0,18.5,0,-2.1484375,-12.5,-2.1484375,25,,1.4,,20.3125,4,0,2812.5,14.86636835,6.3681354,-8.49823295,0,1.37256,3.28125,10,,0,21.71875,-4.84375,12.156862745098,75.2,0,39.776,,183.2,96.8,12.5,10.9375,3.125,12.5,
51,2024-06-27,04:58:07.76371,3.28442,0,18.5,0,-2.1484375,-12.5,-2.1484375,12.5,,1.2,,10.9375,7,0,2703.125,14.86636835,2.7016332,-12.16473515,0,1.450992,2.703125,10,,0,21.71875,-4.84375,12.156862745098,75.2,0,39.776,,183.2,96.8,7.8125,6.25,4.6875,7.8125,
52,2024-06-27,04:58:07.87307,3.39789,0,12.3,0,-12.5,-12.5,-2.1484375,7.8125,,1.2,,7.8125,11,0,2750,14.86636835,2.7016332,-12.16473515,0,1.450992,2.75,10,,0,15.46875,0.3125,12.156862745098,75.2,0,39.776,,183.2,96.8,7.8125,6.25,6.25,6.25,
53,2024-06-27,04:58:07.99808,3.52296,0,12.2,0,-12.5,-12.5,-2.1484375,6.25,,1.2,,7.8125,14,0,2804.6875,14.86636835,2.5086594,-12.35770895,0,1.588248,2.8046875,10,,0,15.46875,0.3125,12.156862745098,75.2,0,39.776,,183.2,96.8,7.8125,6.25,6.25,6.25,
54,2024-06-27,04:58:08.07620,3.60541,0,11.6,0,-12.5,-12.5,-2.1484375,6.25,,1.2,,6.25,17,0,2890.625,14.86636835,2.5086594,-12.35770895,0,1.588248,2.890625,10,,0,12.8125,0.46875,12.156862745098,75.2,0,39.776,,183.2,96.8,7.8125,6.25,7.8125,6.25,
55,2024-06-27,04:58:08.20120,3.71768,0,11.6,0,-12.5,-12.5,-2.1484375,6.25,,0,,6.25,-10,0,3007.8125,14.93888722,2.7016332,-12.23725402,0,1.686288,0,10,,0,12.8125,0.46875,12.156862745098,75.2,0,39.776,,183.2,96.8,9.375,0,12.5,9.375,
56,2024-06-27,04:58:08.27932,3.79812,0,11.7,0,-12.5,-12.5,-2.1484375,9.375,,0,,9.375,-10,0,3187.5,14.93888722,2.7016332,-12.23725402,0,1.686288,0,10,,0,10.9375,0.3125,14.1176470588235,75.2,0,39.776,,183.2,96.8,10.9375,0,10.9375,9.375,
57,2024-06-27,04:58:08.35747,3.88602,0,11.7,0,-12.5,-12.5,-2.1484375,9.375,,0,,9.375,-10,0,3273.4375,14.86636835,2.894607,-11.97176135,0,1.607856,0,10,,0,10.9375,0.3125,14.1176470588235,75.2,0,38.533,,183.2,96.8,10.9375,0,9.375,9.375,
58,2024-06-27,04:58:08.41999,3.94179,0,12.6,0,-12.5,-12.5,-2.1484375,9.375,,0,,9.375,-10,0,3390.625,14.86636835,2.894607,-11.97176135,0,1.607856,0,10,,0,10.15625,0.15625,14.1176470588235,75.2,0,38.533,,183.2,96.8,12.5,0,10.9375,9.375,
59,2024-06-27,04:58:08.49807,4.01433,0,12.6,0,-12.5,-12.5,-2.1484375,9.375,,0,,9.375,-10,0,3414.0625,14.86636835,3.0875808,-11.77878755,0,1.66668,0,10,,0,10.15625,0.15625,14.5098039215686,75.2,0,38.533,,183.2,96.8,12.5,0,9.375,9.375,
60,2024-06-27,04:58:08.54496,4.07059,0,14,0,-12.5,-12.5,-2.1484375,9.375,,0,,9.375,-10,0,3382.8125,14.86636835,3.0875808,-11.77878755,0,1.66668,0,10,,0,10,0.46875,14.5098039215686,75.2,0,38.533,,183.2,96.8,12.5,0,7.8125,9.375,
61,2024-06-27,04:58:08.57622,4.10528,0,14,0,-12.5,-12.5,-2.1484375,9.375,,0,,9.375,-10,0,3367.1875,14.86636835,3.0875808,-11.77878755,0,1.66668,0,10,,0,10,0.46875,14.5098039215686,75.2,0,38.533,,183.2,96.8,12.5,0,7.8125,9.375,
62,2024-06-27,04:58:08.63870,4.15679,0,14,0,-12.5,-12.5,-2.1484375,9.375,,0,,9.375,-10,0,3375,14.86636835,3.0875808,-11.77878755,0,1.66668,0,10,,0,9.84375,0.3125,14.5098039215686,75.2,0,38.533,,183.2,96.8,12.5,0,7.8125,7.8125,
63,2024-06-27,04:58:08.68562,4.21324,0,14,0,-12.5,-12.5,-2.1484375,9.375,,0,,9.375,-10,0,3382.8125,14.86636835,3.0875808,-11.77878755,0,1.588248,0,10,,0,9.84375,0.3125,14.5098039215686,75.2,0,38.533,,183.2,96.8,12.5,0,7.8125,7.8125,
64,2024-06-27,04:58:08.73248,4.25644,0,14,0,-12.5,-12.5,-2.1484375,9.375,,0,,9.375,-10,0,3367.1875,14.86636835,3.0875808,-11.77878755,0,1.588248,0,10,,0,9.6875,0.3125,14.5098039215686,75.2,0,38.533,,183.2,96.8,12.5,0,9.375,9.375,
65,2024-06-27,04:58:08.79495,4.30973,0,14,0,-12.5,-12.5,-2.1484375,9.375,,0,,9.375,-10,0,3359.375,14.86636835,3.0875808,-11.77878755,0,1.627464,0,10,,0,9.6875,0.3125,14.1176470588235,75.2,0,38.533,,183.2,96.8,12.5,0,7.8125,9.375,
66,2024-06-27,04:58:08.84182,4.36561,0,15.3,0,-12.5,-12.5,-2.1484375,9.375,,0,,9.375,-10,0,3343.75,14.86636835,3.0875808,-11.77878755,0,1.627464,0,10,,0,9.6875,0.46875,14.1176470588235,75.2,0,37.29,,183.2,96.8,12.5,0,9.375,9.375,
67,2024-06-27,04:58:08.88870,4.40337,0,15.3,0,-12.5,-12.5,-2.1484375,9.375,,0,,9.375,-10,0,3343.75,14.86636835,3.0875808,-11.77878755,0,1.56864,0,10,,0,9.6875,0.46875,14.1176470588235,75.2,0,37.29,,183.2,96.8,12.5,0,9.375,9.375,
68,2024-06-27,04:58:08.91995,4.44263,0,15.3,0,-12.5,-12.5,-2.1484375,9.375,,0,,9.375,-10,0,3335.9375,14.86636835,3.0875808,-11.77878755,0,1.56864,0,10,,0,9.6875,0.46875,14.1176470588235,75.2,0,37.29,,183.2,96.8,12.5,0,10.9375,9.375,
69,2024-06-27,04:58:08.98249,4.50882,0,18.5,0,-12.5,-12.5,-2.1484375,9.375,,0,,9.375,-10,0,3320.3125,14.86636835,3.0875808,-11.77878755,0,1.725504,0,10,,0,9.6875,0.46875,14.1176470588235,75.2,0,37.29,,183.2,96.8,12.5,0,9.375,9.375,
70,2024-06-27,04:58:09.01372,4.53241,0,18.5,0,-12.5,-12.5,-2.1484375,9.375,,0,,9.375,-10,0,3320.3125,14.86636835,3.0875808,-11.77878755,0,1.725504,0,10,,0,9.6875,0.46875,14.1176470588235,75.2,0,37.29,,183.2,96.8,12.5,0,7.8125,9.375,
71,2024-06-27,04:58:09.04498,4.57446,0,18.5,0,-12.5,-12.5,-2.1484375,9.375,,0,,9.375,-10,0,3320.3125,14.86636835,3.0875808,-11.77878755,0,1.607856,0,10,,0,9.6875,0.46875,14.1176470588235,75.2,0,37.29,,183.2,96.8,12.5,0,7.8125,9.375,
72,2024-06-27,04:58:09.09185,4.61078,0,18.5,0,-12.5,-12.5,-2.1484375,9.375,,0,,9.375,-10,0,3312.5,14.86636835,3.0875808,-11.77878755,0,1.607856,0,10,,0,9.6875,0.46875,14.1176470588235,75.2,0,37.29,,183.2,96.8,12.5,0,9.375,9.375,
73,2024-06-27,04:58:09.13872,4.66216,0,18.5,0,-12.5,-12.5,-2.1484375,9.375,,0,,9.375,-10,0,3304.6875,14.86636835,3.0875808,-11.77878755,0,1.627464,0,10,,0,9.6875,0.46875,14.1176470588235,75.2,0,37.29,,183.2,96.8,10.9375,0,9.375,9.375,
74,2024-06-27,04:58:09.18560,4.71265,0,18.5,0,-12.5,-12.5,-2.1484375,9.375,,0,,9.375,-10,0,3296.875,14.86636835,3.0875808,-11.77878755,0,1.627464,0,10,,0,9.84375,0.46875,14.1176470588235,75.2,0,37.29,,183.2,96.8,10.9375,0,10.9375,9.375,
75,2024-06-27,04:58:09.20120,4.73061,0,18.5,0,-12.5,-12.5,-2.1484375,9.375,,0,,9.375,-10,0,3296.875,14.86636835,3.0875808,-11.77878755,0,1.627464,0,10,,0,9.84375,0.46875,14.1176470588235,75.2,0,37.29,,183.2,96.8,10.9375,0,7.8125,9.375,
76,2024-06-27,04:58:09.23245,4.76067,0,18.5,0,-12.5,-12.5,-2.1484375,9.375,,0,,9.375,-10,0,3296.875,14.86636835,3.0875808,-11.77878755,0,1.627464,0,10,,0,9.84375,0.3125,14.1176470588235,75.2,0,37.29,,183.2,96.8,10.9375,0,7.8125,9.375,
77,2024-06-27,04:58:09.27932,4.79831,0,18.5,0,-12.5,-12.5,-2.1484375,9.375,,0,,9.375,-10,0,3289.0625,14.86636835,3.0875808,-11.77878755,0,1.627464,0,10,,0,9.84375,0.3125,14.1176470588235,75.2,0,37.29,,183.2,96.8,10.9375,0,7.8125,9.375,
78,2024-06-27,04:58:09.31057,4.83432,0,18.5,0,-12.5,-12.5,-2.1484375,9.375,,0,,9.375,-10,0,3281.25,14.86636835,3.0875808,-11.77878755,0,1.627464,0,10,,0,9.84375,0.3125,14.1176470588235,75.2,0,37.29,,183.2,96.8,10.9375,0,7.8125,9.375,
79,2024-06-27,04:58:09.34185,4.86919,0,18.5,0,-12.5,-12.5,-2.1484375,9.375,,0,,9.375,-10,0,3281.25,14.86636835,3.0875808,-11.77878755,0,1.509816,0,10,,0,9.84375,0.3125,14.1176470588235,75.2,0,37.29,,183.2,96.8,10.9375,0,7.8125,7.8125,
80,2024-06-27,04:58:09.41995,4.9358,0,18.5,0,-12.5,-12.5,-2.1484375,7.8125,,0,,9.375,-10,0,3273.4375,14.86636835,3.0875808,-11.77878755,0,1.509816,0,10,,0,9.84375,0.46875,14.1176470588235,75.2,0,37.29,,183.2,96.8,10.9375,0,7.8125,7.8125,
81,2024-06-27,04:58:09.48250,5.00892,0,18.5,0,-12.5,-12.5,-2.1484375,7.8125,,0,,7.8125,-10,0,3273.4375,14.93888722,3.0875808,-11.85130642,0,1.627464,0,10,,0,9.84375,0.46875,14.1176470588235,75.2,0,37.29,,183.2,96.8,10.9375,0,7.8125,7.8125,
82,2024-06-27,04:58:09.54499,5.06887,0,18.5,0,-12.5,-12.5,-2.1484375,9.375,,0,,9.375,-10,0,3257.8125,14.93888722,3.0875808,-11.85130642,0,1.627464,0,10,,0,9.84375,0.46875,14.1176470588235,75.2,0,37.29,,183.2,96.8,10.9375,0,9.375,9.375,
83,2024-06-27,04:58:09.60745,5.13492,0,18.5,0,-12.5,-12.5,-2.1484375,9.375,,0,,9.375,-10,0,3250,14.86636835,3.0875808,-11.77878755,0,1.588248,0,10,,0,9.84375,0.46875,14.1176470588235,75.2,0,37.29,,183.2,96.8,10.9375,0,7.8125,9.375,
84,2024-06-27,04:58:09.63870,5.1688,0,18.5,0,-12.5,-12.5,-2.1484375,9.375,,0,,9.375,-10,0,3242.1875,14.86636835,3.0875808,-11.77878755,0,1.588248,0,10,,0,9.84375,0.46875,14.1176470588235,75.2,0,36.047,,183.2,96.8,10.9375,0,7.8125,7.8125,
85,2024-06-27,04:58:09.74811,5.27409,0,18.5,0,-12.5,-12.5,-2.1484375,9.375,,0,,9.375,-10,0,3234.375,14.93888722,3.0875808,-11.85130642,0,1.588248,0,10,,0,9.84375,0.46875,14.1176470588235,75.2,0,36.047,,183.2,96.8,10.9375,0,10.9375,9.375,
86,2024-06-27,04:58:09.79496,5.31358,0,18.5,0,-12.5,-12.5,-2.1484375,9.375,,0,,9.375,-10,0,3218.75,14.93888722,3.0875808,-11.85130642,0,1.588248,0,10,,0,9.84375,0.46875,14.1176470588235,75.2,0,36.047,,183.2,96.8,10.9375,0,7.8125,9.375,
87,2024-06-27,04:58:09.87310,5.39458,0,18.5,0,-12.5,-12.5,-2.1484375,9.375,,0,,9.375,-10,0,3210.9375,14.93888722,3.1840677,-11.75481952,0,1.627464,0,10,,0,9.84375,0.46875,14.1176470588235,75.2,0,36.047,,183.2,96.8,10.9375,0,9.375,9.375,
88,2024-06-27,04:58:09.90436,5.43213,0,18.5,0,-12.5,-12.5,-2.1484375,9.375,,0,,9.375,-10,0,3203.125,14.93888722,3.1840677,-11.75481952,0,1.627464,0,10,,0,9.84375,0.46875,14.1176470588235,75.2,0,36.047,,183.2,96.8,10.9375,0,9.375,9.375,
89,2024-06-27,04:58:09.99808,5.52096,0,18.5,0,-12.5,-12.5,-2.1484375,9.375,,0,,9.375,-10,0,3195.3125,14.86636835,3.0875808,-11.77878755,0,1.686288,0,10,,0,9.84375,0.46875,14.1176470588235,75.2,0,36.047,,183.2,96.8,10.9375,0,10.9375,9.375,
90,2024-06-27,04:58:10.02936,5.55923,0,18.5,0,-12.5,-12.5,-2.1484375,9.375,,0,,9.375,-10,0,3187.5,14.86636835,3.0875808,-11.77878755,0,1.686288,0,10,,0,9.84375,0.46875,14.1176470588235,75.2,0,36.047,,183.2,96.8,10.9375,0,7.8125,9.375,
91,2024-06-27,04:58:10.09183,5.61174,0,18.5,0,-12.5,-12.5,-2.1484375,9.375,,0,,9.375,-10,0,3179.6875,14.86636835,3.0875808,-11.77878755,0,1.705896,0,10,,0,9.84375,0.46875,14.1176470588235,75.2,0,36.047,,183.2,96.8,10.9375,0,9.375,9.375,
92,2024-06-27,04:58:10.10745,5.63408,0,18.5,0,-12.5,-12.5,-2.1484375,9.375,,0,,9.375,-10,0,3179.6875,14.86636835,3.0875808,-11.77878755,0,1.705896,0,10,,0,9.84375,0.46875,14.1176470588235,75.2,0,36.047,,183.2,96.8,10.9375,0,9.375,9.375,
93,2024-06-27,04:58:10.18557,5.70289,0,18.5,0,-12.5,-12.5,-2.1484375,9.375,,0,,9.375,-10,0,3171.875,14.93888722,3.0875808,-11.85130642,0,1.686288,0,10,,0,9.84375,0.46875,14.1176470588235,75.2,0,36.047,,183.2,96.8,10.9375,0,9.375,9.375,
94,2024-06-27,04:58:10.21682,5.74003,0,18.5,0,-12.5,-12.5,-2.1484375,9.375,,0,,9.375,-10,0,3156.25,14.93888722,3.0875808,-11.85130642,0,1.686288,0,10,,0,9.84375,0.46875,14.1176470588235,75.2,0,36.047,,183.2,96.8,10.9375,0,9.375,9.375,
95,2024-06-27,04:58:10.29499,5.81926,0,18.5,0,-12.5,-12.5,-2.1484375,9.375,,0,,9.375,-10,0,3148.4375,14.86636835,3.1840677,-11.68230065,0,1.66668,0,10,,0,9.84375,0.46875,14.9019607843137,75.2,0,36.047,,183.2,96.8,12.5,0,14.0625,10.9375,
96,2024-06-27,04:58:10.37307,5.89279,0,18.5,0,-12.5,-12.5,-2.1484375,10.9375,,0,,10.9375,-10,0,3132.8125,14.86636835,3.1840677,-11.68230065,0,1.66668,0,10,,0,9.84375,0.3125,14.9019607843137,75.2,0,34.804,,183.2,96.8,12.5,0,14.0625,12.5,
97,2024-06-27,04:58:10.48251,5.99813,0,18.5,0,-12.5,-12.5,-2.1484375,12.5,,0,,12.5,-10,0,3125,14.93888722,3.5700153,-11.36887192,0,1.803936,0,10,,0,9.84375,0.3125,14.9019607843137,75.2,0,34.804,,183.2,96.8,15.625,0,15.625,14.0625,
98,2024-06-27,04:58:10.57620,6.09337,0,18.5,0,-12.5,-12.5,-2.1484375,14.0625,,1.3,,15.625,0,0,3117.1875,14.93888722,3.5700153,-11.36887192,0,1.803936,3.376953125,10,,0,10,0.3125,15.6862745098039,75.2,0,34.804,,183.2,96.8,14.0625,0,14.0625,14.0625,
99,2024-06-27,04:58:10.63870,6.15616,0,18.5,0,-12.5,-12.5,-2.1484375,14.0625,,1.3,,14.0625,20,0,3117.1875,14.93888722,3.5700153,-11.36887192,0,1.725504,3.376953125,10,,0,10,0.3125,15.6862745098039,75.2,0,34.804,,183.2,96.8,14.0625,0,15.625,14.0625,
100,2024-06-27,04:58:10.70120,6.21982,0,18.5,0,-12.5,-12.5,-2.1484375,14.0625,,1.3,,14.0625,37,0,3109.375,14.93888722,3.5700153,-11.36887192,0,1.725504,3.36848958333333,10,,0,10,0.46875,15.6862745098039,75.2,0,34.804,,183.2,96.8,14.0625,0,15.625,14.0625,